EUTELSAT 117 WEST B (41589 NORAD) Tracking and Keplerian Element Data

This shows tracking and keplerian element data for the satellite.

Feedback or suggestion? Click here.




ElementValue
Catalog41589
NameEUTELSAT 117 WEST B
Epoch Orbit1357
Epoch Day53.09835847
Epoch Year2020
RAAN254.998
Inclination0.0111
Eccentricity2.94E-05
Argument of Perigee50.257
Mean Anonmoly124.6133
Mean Motion1.00272318
Decay Rate-2.9E-07
L11 41589U 16038B 20053.09835847 -.00000029 00000-0 00000+0 0 9990
L22 41589 0.0111 254.9980 0000294 50.2570 124.6133 1.00272318 13573

Live tracking and technical data element details for EUTELSAT 117 WEST B (NORAD 41589). EUTELSAT 117 WEST B can be tracked NOW for your location showing map with azimuth and elevation plus other details from your city location.

Track the satellite on the map from your city or location and see movement details for azimuth, elevation, latitude, longitude, range, height, and movement on the map or in text.







IsCatalogInMostPopularTable: catalog: 41589, numindb: 381
Update: records affected: 1



GetName: 41589 EUTELSAT 117 WEST B

Hit Count: updated at: Sun, 23 Feb 2020 07:28:54 GMT